Starlink 30993

operational
NORAD ID: 58489 Int'l Des: 2023-186 Owner: SPXS Country: US Constellation: starlink
LEOCIRCULAR

Über Starlink 30993

Beschreibung wird geladen...

Live-Position

3D-Globus wird geladen...

Nächste Überflüge

Höhenverlauf

Altitude vs Time

uPlot chart will show altitude changes over time

Zweizeiliger Elementsatz

1 58489U 23186S 25351.19606442 .00000125 00000-0 24345-4 0 9992
2 58489 43.0004 155.5816 0001270 264.6224 95.4473 15.02530044113432
Epoch: 17. Dez. 2025 • Age: 15 hours

Aktueller Status

Höhe 560.0 km
Geschwindigkeit 7.59 km/s
Subsatellitenpunkt 28.11°N, 171.49°E
Startdatum 3. Dez. 2023
Alter 2 years
Typ internet

Technische Details

Klassifizierung Payload
Masse 730.00 kg
Trockenmasse 700.00 kg
Gesamtmasse 730.00 kg
Länge 0.30 m
Durchmesser 4.10 m
Spannweite 29.00 m
Form Box + pan
Hersteller SPXS
Bus-Typ Starlink V2M
Phasenstatus In Orbit
Besitzer/Staat SPXS/US

Große Konstellationen

Loading constellations...